Concordia, KS

4:40 PM CST on November 11, 2019 (GMT -0600)
Blosser Municipal

Weather History for KCNK - September, 2019

Change the Weather History Date:

Saturday, September 7, 2019

  Actual Average Record
Temperature  
Mean Temperature 76 °F 72 °F  
Max Temperature 89 °F 84 °F 104 °F (1947)
Min Temperature 62 °F 60 °F 41 °F (1956)
Degree Days  
Heating Degree Days 0 1  
Month to date heating degree days 0 5  
Since 1 July heating degree days 0 8  
Cooling Degree Days 11 8  
Month to date cooling degree days 90 59  
Year to date cooling degree days 1367 1225  
Growing Degree Days 26 (Base 50)    
Moisture  
Dew Point 67 °F    
Average Humidity 77    
Maximum Humidity 94    
Minimum Humidity 59    
Precipitation  
Precipitation T in 0.10 in 2.81 in (1885)
Month to date precipitation T 0.67  
Year to date precipitation 28.84 21.77  
Snow  
Snow 0.00 in 0.00 in 0.00 in ()
Month to date snowfall 0.0 0.0  
Year to date snowfall 32.3 13.7  
Since 1 July snowfall 0.0 0.0  
Snow Depth 0.00 in    
Sea Level Pressure  
Sea Level Pressure 29.93 in    
Wind  
Wind Speed 7 mph (SE)    
Max Wind Speed 18 mph    
Max Gust Speed 24 mph    
Visibility 10 miles    
Events Rain , Thunderstorm    
T = Trace of Precipitation, MM = Missing Value Source: NWS Daily Summary

Daily Weather History Graph

Daily Weather History Graph

Search for Another Location

Airport or City:

Astronomy

Sep. 07, 2019 Rise Set
Actual Time 7:04 AM CDT 7:52 PM CDT
Civil Twilight 6:36 AM CDT 8:19 PM CDT
Nautical Twilight 6:04 AM CDT 8:51 PM CDT
Astronomical Twilight 5:31 AM CDT 9:25 PM CDT
Moon 4:08 PM CDT (9/7) 12:58 AM CDT (9/7)
Length of Visible Light 13h 42m
Length of Day
12h 48m
Waxing Gibbous, 66% of the Moon is Illuminated
Sep 7
Waxing Gibbous
Sep 13
Full
Sep 21
Last Quarter
Sep 28
New
Oct 5
First Quarter

Hourly Weather History & Observations

Time (CDT) Temp. Heat Index Dew Point Humidity Pressure Visibility Wind Dir Wind Speed Gust Speed Precip Events Conditions
12:55 AM 64.9 °F - 61.0 °F 87% 30.06 in 10.0 mi East 4.6 mph - N/A   Clear
1:55 AM 64.0 °F - 61.0 °F 90% 30.07 in 10.0 mi Calm Calm - N/A   Clear
2:55 AM 63.0 °F - 61.0 °F 93% 30.07 in 10.0 mi ESE 3.5 mph - N/A   Clear
3:55 AM 64.9 °F - 61.0 °F 87% 30.06 in 10.0 mi ESE 4.6 mph - N/A   Clear
4:55 AM 63.0 °F - 61.0 °F 93% 30.04 in 10.0 mi ESE 3.5 mph - N/A   Clear
5:55 AM 64.0 °F - 61.0 °F 90% 30.04 in 10.0 mi SE 6.9 mph - N/A   Clear
6:55 AM 63.0 °F - 61.0 °F 93% 30.04 in 10.0 mi ESE 4.6 mph - N/A   Clear
8:55 AM 68.0 °F - 64.0 °F 87% 30.03 in 10.0 mi ESE 6.9 mph - N/A   Clear
9:55 AM 72.0 °F - 64.0 °F 76% 29.99 in 10.0 mi SE 16.1 mph - N/A   Partly Cloudy
10:29 AM 73.9 °F - 64.0 °F 71% 30.02 in 10.0 mi SE 15.0 mph - N/A   Mostly Cloudy
10:53 AM 75.2 °F - 64.4 °F 69% 30.01 in 10.0 mi SE 15.0 mph - N/A   Scattered Clouds
10:55 AM 75.0 °F - 64.9 °F 71% 29.98 in 10.0 mi SE 13.8 mph - N/A   Partly Cloudy
11:55 AM 77.0 °F - 66.0 °F 69% 29.94 in 10.0 mi SE 16.1 mph - N/A   Clear
12:55 PM 81.0 °F 83.8 °F 68.0 °F 65% 29.92 in 10.0 mi SE 12.7 mph - N/A   Clear
1:55 PM 82.9 °F 87.0 °F 70.0 °F 65% 29.90 in 10.0 mi SE 8.1 mph - N/A   Clear
2:55 PM 87.1 °F 93.6 °F 72.0 °F 61% 29.86 in 10.0 mi SSE 12.7 mph 19.6 mph N/A   Clear
3:55 PM 88.0 °F 95.6 °F 73.0 °F 61% 29.83 in 10.0 mi South 6.9 mph - N/A   Clear
4:55 PM 88.0 °F 94.7 °F 72.0 °F 59% 29.82 in 10.0 mi SE 9.2 mph - N/A   Clear
5:55 PM 88.0 °F 95.6 °F 73.0 °F 61% 29.81 in 9.0 mi SSE 3.5 mph - N/A   Partly Cloudy
6:55 PM 84.9 °F 93.3 °F 75.0 °F 72% 29.80 in 6.0 mi SE 3.5 mph - N/A   Haze
7:55 PM 82.9 °F 89.4 °F 73.9 °F 74% 29.80 in 10.0 mi ENE 4.6 mph - N/A   Clear
8:55 PM 80.1 °F 85.1 °F 75.0 °F 85% 29.78 in 10.0 mi SE 3.5 mph - 0.00 in Rain , Thunderstorm Light Rain
9:13 PM 80.1 °F 85.1 °F 75.0 °F 85% 29.83 in 10.0 mi East 5.8 mph - 0.00 in   Scattered Clouds
9:55 PM 78.1 °F - 73.9 °F 87% 29.78 in 10.0 mi South 5.8 mph - 0.00 in   Partly Cloudy
10:55 PM 75.9 °F - 73.0 °F 91% 29.82 in 10.0 mi NNE 6.9 mph - N/A   Clear
11:55 PM 73.0 °F - 68.0 °F 84% 29.85 in 10.0 mi ENE 9.2 mph - N/A   Clear